Simultaneous Nadir Overpasses (SNOs) Predictions

Prediction of SNOs between GOES-16 and NPP Satellite Orbit:

Table of predicted SNOs for the next 14.0 days since TLE Epoch: 2/10/2017
Index Date Time (GOES-16) GOES-16 Lat,Lon NPP Lat,Lon Distance(km) Time Diff (sec)
1 02/10/2017 07:20:44 -0.01, -89.49 -0.08, -89.28 23.65 80
2 02/12/2017 19:23:54 0.02, -89.51 -0.13, -90.04 61.78 80
3 02/13/2017 19:07:49 0.02, -89.52 0.93, -85.52 455.91 80
4 02/15/2017 07:29:36 -0.02, -89.52 0.27, -90.78 143.50 80
5 02/16/2017 07:08:10 -0.02, -89.53 -0.73, -86.24 374.10 80
6 02/17/2017 19:30:06 0.02, -89.55 -0.42, -91.55 227.87 80
7 02/18/2017 19:14:01 0.02, -89.57 0.58, -87.02 290.13 80
8 02/20/2017 07:35:48 -0.03, -89.58 0.56, -92.29 308.39 80
9 02/21/2017 07:14:23 -0.03, -89.59 -0.44, -87.76 209.41 80
10 02/22/2017 19:36:18 0.03, -89.61 -0.76, -93.05 392.77 80
11 02/23/2017 19:20:14 0.03, -89.63 0.29, -88.53 125.49 80




NCC Satellite Simultaneous Nadir Overpasses (SNOs) Prediction Service
